Location: Unspecified
(49.2170°N, 0.0000°E)
Time: 07:20:27
(UTC+00:00)

Vanguard 3 - Pass Details

Date: 27 January 2021
Orbit: 508 x 3262 km, 33.4° (Epoch: 08 March)

Event Time Altitude Azimuth Distance (km) Brightness Sun altitude
Rises 02:40:24 0° 212° (SSW) 3,131 - -47.3°
Reaches altitude 10° 02:43:21 10° 190° (S) 2,510 - -46.9°
Maximum altitude 02:47:00 17° 151° (SSE) 2,468 - -46.4°
Exits shadow 02:50:06 13° 126° (SE) 3,038 10.2 -45.9°
Drops below altitude 10° 02:51:48 10° 116° (ESE) 3,487 10.6 -45.7°
Sets 02:57:07 0° 100° (E) 5,087 11.7 -44.9°
